Archer City, TX (76351)

7:12 PM CDT on July 23, 2016 (GMT -0500)
North Archer Co/Bowman | | Change Station

Elev 994 ft 33.81 °N, 98.58 °W | Updated 7 seconds ago

Clear
Clear
98.6 °F
Feels Like 93 °F
N
14.3
Wind Variable Wind from West
Gusts 17.5 mph

Today
High -- | Low -- °F
--% Chance of Precip.
Yesterday
High -- | Low -- °F
Precip. -- in
Pressure 29.86 in
Visibility 10.0 miles
Clouds Clear
Heat Index 93 °F
Dew Point 33 °F
Humidity 10%
Rainfall 0.00 in
Snow Depth Not available.
6:40 AM 8:40 PM
Waning Gibbous, 81% visible
METAR KCWC 232355Z AUTO 13016G20KT 10SM CLR 38/16 A2986 RMK AO2 T03810158 10391 20362
Pressure 29.86 in
Visibility 10.0 miles
Clouds Clear
Heat Index 93 °F
Dew Point 33 °F
Humidity 10%
Rainfall 0.00 in
Snow Depth Not available.
6:40 AM 8:40 PM
Waning Gibbous, 81% visible
METAR KCWC 232355Z AUTO 13016G20KT 10SM CLR 38/16 A2986 RMK AO2 T03810158 10391 20362

10-Day Weather Forecast

Almanac

Astronomy

Jul. 23, 2016 Rise Set
Actual Time
Civil Twilight
Nautical Twilight
Astronomical Twilight
Moon
Length of Visible Light
Length of Day
Tomorrow will be .
, % of the Moon is Illuminated

Today's Extremes

State Highs State Lows

Community

WunderPhotos

Upload Photos

1,926,979 photos uploaded!

WunderBlog® & News

Nearby

Air Quality

  Air Quality AQ Index Pollutant
Not available.

Snow Depth

Station Depth Elevation

Earthquake Activity

City Distance Mag. Time & Date
Minimum magnitude displayed is 2.5.

Coastal Water Temperatures

Place Temperature

Stations

Nearby Weather Stations

Station Location Temp. Windchill Dew Point Humidity Wind Precip. Elev Updated Type
                   

Watches & Warnings

There are currently no watches in effect.